RH
3 6 10 9 15 17 18 18 18 19 31 75 76 74 64 100 100 100 100 97 100 99 100 99 99 90 84 77 74 80 90 82 95 68 88 76 78 99 87 66 63 46 44 54 79
4 8 11 10 16 18 18 19 20 20 25 61 83 73 78 74 100 100 100 97 97 100 100 100 100 99 89 85 82 81 76 85 73 78 81 88 88 80 69 59 52 55 58 82 97
5 10 12 11 16 18 18 22 22 21 24 42 74 76 78 80 62 100 100 100 89 100 100 99 98 98 99 92 87 76 92 92 89 92 94 98 85 78 66 62 65 70 97 100 83
8 12 11 12 14 18 21 24 25 24 25 33 65 86 79 87 80 59 100 100 100 100 100 100 100 100 100 100 100 97 100 95 92 84 79 84 80 70 82 79 81 100 90 79 60
11 13 13 11 13 18 22 25 29 25 25 32 45 83 82 87 89 75 59 88 100 100 100 98 100 100 100 100 100 100 99 95 85 84 90 89 90 90 100 95 100 100 90 67 45
16 15 12 11 13 18 23 27 29 28 27 33 42 75 88 89 92 97 76 70 50 86 100 100 100 94 95 94 98 88 85 98 99 100 100 100 100 100 100 100 100 99 56 35 35
16 14 12 12 14 19 25 29 34 33 30 31 31 59 80 86 89 95 95 82 71 51 45 79 100 100 100 100 100 100 100 100 100 100 100 100 100 100 97 59 50 45 47 48 45
20 14 12 14 16 22 29 33 34 33 30 32 32 48 58 72 89 97 91 90 86 74 68 58 53 57 69 85 80 65 58 59 55 51 50 49 52 58 63 62 56 45 43 42 45
25 20 15 13 16 25 33 36 34 34 31 30 30 35 39 51 70 84 94 97 90 87 86 77 66 68 70 72 72 67 64 60 62 60 65 60 63 68 62 57 65 66 56 51 45
32 28 24 17 15 20 25 31 34 32 32 31 33 31 36 39 45 49 75 96 97 94 95 91 88 89 89 81 80 81 79 71 71 71 88 82 79 84 77 74 67 61 54 39 26
34 34 30 26 19 15 23 34 34 35 32 30 31 34 37 38 39 36 35 43 68 99 100 93 91 89 80 76 72 72 78 81 77 76 92 93 89 82 69 46 25 18 15 14 14
26 33 34 31 25 20 17 23 34 38 39 37 35 34 35 35 39 41 41 44 37 43 50 57 61 59 62 58 59 76 75 63 63 62 51 41 31 21 18 17 15 17 20 20 19
16 22 30 32 33 30 23 19 19 29 37 42 42 43 44 44 41 43 44 48 52 45 42 41 43 39 37 38 36 34 36 38 33 30 24 22 22 21 20 22 22 20 20 22 21
38 19 16 24 30 35 33 28 23 19 21 34 45 50 48 49 49 49 47 45 44 39 35 34 36 35 32 30 32 31 30 30 28 29 30 25 23 27 27 24 22 17 12 10 11
66 53 30 16 20 29 35 35 34 29 25 24 26 36 52 58 54 50 49 43 43 42 40 37 36 37 37 39 44 45 37 34 29 26 27 29 30 28 17 12 13 15 15 16 15
51 61 64 45 25 20 27 36 39 42 44 39 35 32 34 32 34 35 35 35 35 35 35 34 38 39 38 33 28 25 25 26 30 35 34 29 21 20 17 14 12 13 15 14 20
45 49 53 61 52 44 32 26 28 39 40 48 43 40 40 35 34 32 29 26 24 25 24 23 23 24 25 28 31 34 37 39 38 31 25 21 20 22 23 22 20 19 16 15 14
48 46 52 61 53 67 67 58 56 38 27 25 30 41 42 41 40 40 38 34 33 32 33 32 36 37 37 36 35 36 38 27 23 26 33 32 37 34 32 32 30 27 24 20 14
68 53 46 48 71 77 69 64 69 67 50 45 36 27 24 25 26 32 32 33 28 31 32 34 34 32 32 32 25 24 29 34 42 45 44 40 38 36 36 38 38 37 39 32 30
69 70 68 50 44 53 83 83 86 74 63 58 51 49 46 42 38 34 31 28 23 20 19 21 24 27 28 29 34 42 47 54 51 45 44 40 39 40 44 48 57 56 58 54 52
74 72 68 65 61 52 44 55 84 96 98 70 57 66 64 53 50 44 41 38 40 40 40 39 40 42 44 47 48 52 53 51 46 43 41 40 40 45 53 58 61 58 56 58 55
79 65 58 56 61 52 54 48 45 53 77 82 93 74 76 60 57 53 54 46 48 54 50 50 50 51 48 47 45 43 40 45 50 56 51 45 44 46 50 55 62 73 77 78 61
96 75 60 53 55 55 53 46 44 42 42 53 79 80 82 85 71 73 71 73 65 60 62 54 53 49 47 46 45 43 43 44 46 42 40 42 44 42 45 47 60 62 65 70 65
62 73 76 76 69 48 48 52 53 46 43 37 36 46 59 66 66 65 73 74 70 77 79 75 81 80 55 50 45 45 52 58 67 72 70 65 50 49 46 48 50 63 67 74 76
51 52 52 60 76 79 78 66 61 57 48 45 41 34 32 37 41 47 51 54 52 52 57 62 58 75 57 62 70 65 69 73 64 69 77 70 57 47 34 42 48 61 69 75 76
68 61 56 57 60 72 63 80 92 94 86 69 44 42 37 29 29 28 33 37 36 38 42 43 42 45 45 36 61 72 38 46 65 76 74 50 52 63 46 44 45 50 58 67 76
59 62 59 61 56 56 65 68 75 76 84 83 78 67 40 32 34 36 34 32 29 27 27 28 28 30 29 29 34 46 45 43 43 43 48 55 58 56 48 41 45 48 50 68 65
Wind_Speed
50 62 73 84 95 101 102 102 98 97 96 96 93 89 88 69 68 70 69 68 67 69 67 65 64 62 60 62 59 59 58 58 59 59 60 60 61 63 63 67 65 60 54 56 59
50 60 65 79 88 94 98 103 100 97 95 95 92 88 86 84 70 66 67 67 65 67 66 66 65 65 64 65 62 62 60 63 64 62 64 65 64 68 68 65 63 62 62 63 58
49 54 61 75 84 89 95 100 98 96 93 94 91 88 85 82 80 67 66 62 65 65 66 63 65 65 65 65 66 66 67 66 65 65 66 67 67 67 66 66 66 64 62 62 61
47 50 54 68 76 82 91 97 95 94 92 91 90 87 85 81 79 76 67 61 64 61 65 62 62 63 64 65 64 64 65 65 65 66 67 66 66 66 69 66 63 63 63 65 73
27 32 45 59 68 75 85 92 93 91 90 88 88 86 83 81 78 75 74 72 63 59 58 60 63 64 62 62 63 63 62 62 63 65 65 64 63 63 69 66 69 67 71 77 72
25 29 40 50 64 73 81 87 89 89 89 86 84 84 82 80 78 75 74 73 72 71 65 53 52 55 56 55 56 54 54 58 60 62 61 65 67 67 73 75 74 75 80 77 76
23 20 29 42 58 70 78 85 88 87 86 83 80 81 80 79 77 76 74 72 72 72 73 73 71 69 63 63 64 63 62 59 62 64 68 71 75 73 78 81 83 84 82 82 82
26 19 18 33 49 63 70 77 83 84 83 82 79 79 79 78 76 75 74 73 72 72 71 72 72 72 73 75 74 74 74 74 73 76 75 77 77 81 81 83 85 87 86 87 88
30 26 21 23 38 51 59 70 77 80 80 78 76 77 76 75 75 74 73 73 73 73 72 72 72 72 72 74 75 75 76 77 78 78 79 81 80 85 87 86 87 90 92 93 95
27 27 23 18 26 40 49 58 67 73 78 78 76 74 73 73 73 73 72 71 70 71 72 73 72 73 75 75 75 76 78 80 80 79 81 85 85 87 89 90 91 92 95 98 99
24 25 23 19 18 24 38 49 59 67 70 75 76 75 73 71 70 70 70 71 71 70 71 72 72 74 74 74 75 76 76 77 80 81 80 85 87 88 92 92 91 92 96 97 99
21 20 20 22 19 16 24 41 51 59 66 71 73 75 73 71 70 69 67 69 70 71 72 72 72 72 73 74 75 76 78 79 81 84 83 84 86 86 88 88 90 90 94 94 96
33 20 14 16 18 20 17 18 33 48 54 60 65 68 68 68 70 70 69 67 68 68 69 70 71 72 72 74 74 76 77 79 79 81 82 81 82 82 83 83 80 80 81 81 83
66 44 23 13 12 16 16 16 18 23 36 47 53 57 60 61 62 66 68 69 69 69 69 70 71 71 72 73 73 73 75 76 76 75 76 76 76 72 65 67 70 72 70 70 68
63 65 55 32 16 11 13 14 14 16 17 23 32 42 47 52 55 57 61 64 66 67 68 69 69 70 71 71 72 73 71 67 65 63 62 56 57 62 62 52 43 41 41 42 47
54 56 60 59 48 28 15 10 11 12 11 13 17 24 31 36 40 44 50 53 56 57 58 59 60 62 62 61 56 50 45 43 44 47 52 53 47 37 35 34 31 32 35 33 37
46 48 51 55 57 55 47 32 16 7 5 8 9 11 13 17 20 23 28 31 35 37 38 39 39 37 33 31 32 32 36 41 46 44 33 24 22 20 22 22 22 20 22 23 26
39 40 42 45 47 49 51 52 49 39 27 10 8 12 15 16 17 16 16 18 21 24 25 25 27 30 32 34 35 35 35 25 16 12 12 14 13 13 12 14 14 17 19 22 25
31 34 34 35 38 39 40 42 43 43 43 40 33 28 20 13 6 7 11 17 21 24 29 32 31 30 29 29 17 12 8 3 1 2 3 6 9 13 15 20 22 26 30 31 32
24 25 28 28 28 30 32 33 34 35 36 37 39 39 37 31 27 23 19 16 13 11 10 9 7 6 6 8 9 11 12 13 11 10 8 7 10 11 18 21 23 30 30 31 36
20 18 19 21 21 23 22 23 25 26 26 28 28 29 29 29 29 28 26 25 24 23 22 21 19 18 18 18 17 15 11 7 6 5 5 5 7 10 14 19 22 26 29 30 31
20 17 15 14 15 14 16 16 16 17 18 18 19 19 19 19 19 19 18 18 20 20 19 18 18 17 15 13 10 6 3 4 3 5 6 5 8 9 11 16 19 23 25 26 25
20 20 18 15 11 10 10 9 9 9 9 9 10 10 10 10 10 10 9 9 9 8 8 7 6 6 6 3 0 3 5 7 8 8 8 6 4 8 10 13 16 18 19 22 21
18 19 21 22 20 14 10 8 5 4 3 2 2 2 2 3 3 2 1 2 3 4 3 2 6 7 6 7 8 7 8 12 15 16 19 15 16 14 14 16 18 18 21 19 21
14 15 15 17 17 18 17 16 14 11 6 6 6 6 7 8 9 9 8 7 6 8 8 10 10 12 12 12 14 14 17 20 22 19 24 25 25 21 14 17 17 18 21 23 23
14 14 14 14 13 13 14 12 12 13 14 12 8 9 11 12 14 15 16 17 17 17 18 19 20 21 23 16 15 24 19 14 19 26 27 24 29 29 30 27 23 23 25 27 27
17 16 16 16 15 15 16 16 15 17 16 15 13 12 11 10 12 13 15 18 21 22 23 25 26 27 30 26 27 30 32 27 26 25 27 31 33 35 35 33 32 28 30 30 32
Wind_Direction
182 190 196 196 195 201 203 205 207 209 211 212 213 214 213 210 218 221 223 227 230 235 234 237 239 242 244 248 251 252 254 260 263 266 269 271 272 274 277 281 281 281 280 281 279
176 185 193 191 194 197 202 204 206 207 211 212 213 215 216 215 213 218 225 229 230 234 234 236 239 244 245 249 252 252 255 258 262 265 268 270 271 274 277 279 279 280 280 279 279
170 182 189 188 191 195 200 202 205 207 210 213 214 216 217 218 220 215 222 227 230 230 237 238 240 243 248 250 252 255 257 259 263 264 266 268 271 273 274 275 278 279 280 281 281
167 179 181 186 189 195 198 201 204 207 210 213 214 215 218 219 221 221 216 223 225 228 233 236 240 243 244 247 250 255 257 259 262 264 266 268 271 273 273 273 273 273 276 279 285
145 157 175 184 188 194 196 200 202 206 209 213 215 216 219 221 223 225 223 221 220 224 230 236 236 240 245 249 252 254 256 260 262 263 264 267 268 269 267 270 269 272 278 284 283
134 157 173 182 188 192 196 199 202 206 209 212 215 217 218 221 223 225 227 229 230 231 220 220 232 235 239 242 246 252 255 257 260 261 263 263 265 265 268 270 270 273 280 283 284
108 141 172 181 188 193 196 198 201 205 208 213 216 218 220 223 225 227 229 231 233 234 236 238 238 236 233 241 251 252 253 251 255 259 264 267 265 267 271 274 276 280 281 282 282
86 106 143 176 186 193 197 199 202 205 208 213 217 219 222 223 225 229 232 235 237 238 239 242 246 248 250 254 259 262 265 267 269 270 272 271 274 275 274 275 278 280 282 284 285
80 87 110 160 184 193 199 201 204 207 210 214 217 220 223 225 227 229 232 236 238 241 243 245 248 251 253 256 258 261 262 263 265 268 271 272 273 274 275 278 281 283 285 285 286
78 81 89 121 173 190 198 205 208 210 211 215 218 222 224 226 229 232 232 235 239 242 245 247 249 252 255 257 259 262 264 266 269 269 271 274 275 275 278 280 282 285 286 286 285
84 77 83 102 136 185 197 200 205 211 216 218 221 224 225 227 230 233 236 236 238 240 244 248 251 254 257 259 261 263 264 266 268 270 271 274 276 279 281 284 285 284 283 283 283
72 83 82 85 98 135 185 205 209 211 214 218 221 224 228 230 232 235 238 241 241 242 244 247 251 254 257 259 261 263 265 267 269 272 274 275 278 280 282 284 286 285 284 283 282
66 73 86 97 93 99 126 174 204 215 218 221 224 225 228 231 234 237 240 242 245 247 247 249 251 254 256 259 262 265 267 269 272 276 278 279 281 283 285 286 286 284 285 285 283
61 66 75 90 103 103 105 122 153 190 212 219 223 226 229 232 235 238 241 244 247 250 253 255 257 259 262 263 265 268 270 272 275 279 280 283 286 288 286 284 286 287 288 287 290
59 64 65 72 91 118 120 119 124 140 169 199 215 222 225 229 233 237 239 243 246 249 252 255 258 260 263 265 268 272 276 278 279 282 284 285 287 290 292 295 295 297 300 305 310
57 62 63 67 71 80 98 125 123 125 134 160 186 207 219 228 234 238 243 246 249 251 254 257 259 262 265 267 271 275 279 283 284 285 286 290 293 296 301 305 307 314 317 319 323
59 62 66 68 71 73 74 80 102 143 176 200 198 201 203 213 219 227 236 240 243 246 249 253 258 259 264 271 277 283 287 285 290 291 293 297 299 308 313 319 331 334 338 336 337
57 62 67 67 71 71 74 77 77 79 85 116 184 220 240 247 249 252 258 259 263 264 265 265 266 270 270 275 279 282 287 289 285 289 295 299 316 326 339 353 354 357 355 2 360
56 59 64 65 66 69 66 67 68 73 80 84 87 91 98 111 153 224 252 263 264 267 267 267 266 267 269 271 267 262 246 239 153 89 61 77 62 25 34 37 30 36 31 28 25
53 57 59 67 67 68 71 70 65 65 72 77 83 85 86 89 93 97 100 101 104 111 120 133 142 149 152 145 127 124 123 126 124 100 83 50 21 43 38 43 48 43 41 39 38
47 47 57 60 66 65 70 72 74 76 69 71 72 77 86 91 93 93 93 94 95 96 98 101 101 99 101 107 119 122 120 130 142 109 99 98 62 67 58 44 43 38 36 42 38
46 48 51 47 53 67 68 67 71 73 78 82 76 79 76 81 90 94 90 89 93 97 97 98 101 105 115 124 130 130 108 86 126 55 40 48 95 40 31 20 16 17 19 21 33
36 38 43 48 46 47 50 54 67 63 66 75 90 97 92 81 75 74 69 64 70 84 85 91 103 119 139 152 248 15 13 10 1 359 360 6 16 357 353 356 356 4 15 15 17
30 34 40 42 38 41 41 36 30 35 35 30 9 31 114 135 135 134 37 6 357 360 14 355 343 334 321 319 316 317 329 337 339 341 331 332 321 325 329 334 344 352 350 359 358
7 12 15 20 28 38 43 43 42 34 356 317 305 287 282 286 291 291 283 287 279 281 286 292 295 302 289 292 295 296 300 305 312 318 314 317 312 316 310 318 335 332 335 336 342
333 337 344 350 357 358 2 19 26 25 21 16 348 297 276 269 271 276 283 285 288 285 287 291 298 300 302 310 296 301 302 295 296 301 304 304 303 308 316 320 317 328 329 325 325
307 309 316 323 326 331 343 338 341 345 338 343 350 354 339 300 284 280 280 279 283 287 287 289 294 297 297 301 299 294 297 296 300 297 297 299 300 302 305 308 312 318 308 304 314